Location: ???????
(54.9996°N, 37.9529°E)
Time: 08:42:03
(UTC+00:00)

NOSS 2-2 (E) - Visible Passes

Search period start: 24 July 2024 00:00
Search period end: 03 August 2024 00:00
Orbit: 402 x 1749 km, 63.3° (Epoch: 23 July)

Date Brightness Start Highest point End Pass type
(mag) Time Alt. Az. Time Alt. Az. Time Alt. Az.
24 Jul 5.7 20:12:33 10° NW 20:15:13 22° N 20:18:19 10° NE visible
24 Jul 4.8 22:02:28 10° NW 22:05:55 40° NNE 22:10:24 10° E visible
24 Jul 3.8 23:52:02 10° WNW 23:55:58 54° SW 00:01:22 10° SSE visible
25 Jul 5.6 19:18:43 10° WNW 19:21:21 23° N 19:24:21 10° NE visible
25 Jul 5.3 21:09:05 10° NW 21:12:13 29° NNE 21:16:06 10° E visible
25 Jul 3.6 22:58:36 10° NW 23:02:29 90° NNE 23:07:48 10° SE visible
26 Jul 5.2 18:24:46 10° W 18:27:32 27° NNW 18:30:36 10° NE visible
26 Jul 5.6 20:15:35 10° NW 20:18:24 24° N 20:21:46 10° ENE visible
26 Jul 4.2 22:05:15 10° NW 22:08:55 56° NNE 22:13:51 10° ESE visible
26 Jul 4.4 23:55:00 10° WNW 23:58:50 35° SW 00:03:57 10° SSE visible
27 Jul 5.6 19:21:52 10° NW 19:24:31 22° N 19:27:35 10° NE visible
27 Jul 4.8 21:11:53 10° NW 21:15:16 37° NNE 21:19:38 10° E visible
27 Jul 3.7 23:01:25 10° NW 23:05:21 60° SW 23:10:46 10° SSE visible
28 Jul 5.4 18:27:58 10° WNW 18:30:37 23° N 18:33:37 10° NE visible
28 Jul 5.3 20:18:26 10° NW 20:21:29 27° NNE 20:25:15 10° ENE visible
28 Jul 3.6 22:07:57 10° NW 22:11:48 82° NE 22:17:04 10° SE visible
28 Jul 5.0 23:58:05 10° WNW 00:01:35 23° SW 00:06:01 10° S visible
29 Jul 5.5 19:24:50 10° NW 19:27:37 23° N 19:30:54 10° ENE visible
29 Jul 4.2 21:14:33 10° NW 21:18:11 51° NNE 21:23:00 10° ESE visible
29 Jul 4.2 23:04:15 10° WNW 23:08:07 39° SW 23:13:20 10° SSE visible
30 Jul 5.5 18:31:02 10° NW 18:33:41 22° N 18:36:42 10° NE visible
30 Jul 4.9 20:21:07 10° NW 20:24:28 35° NNE 20:28:42 10° E visible
30 Jul 3.6 22:10:39 10° NW 22:14:35 67° SW 22:19:22 13° SE visible
31 Jul 5.5 00:01:34 10° W 00:04:13 15° WSW 00:06:00 13° SW visible
31 Jul 5.2 19:27:37 10° NW 19:30:37 26° NNE 19:34:16 10° ENE visible
31 Jul 3.7 21:17:10 10° NW 21:20:59 75° NE 21:25:53 11° ESE visible
31 Jul 4.9 23:07:10 10° WNW 23:10:47 26° SW 23:12:34 21° SSW visible
01 Aug 5.4 18:33:56 10° NW 18:36:41 22° N 18:39:53 10° ENE visible
01 Aug 4.3 20:23:43 10° NW 20:27:17 47° NNE 20:32:00 10° ESE visible
01 Aug 4.1 22:13:21 10° WNW 22:17:15 43° SW 22:19:28 28° S visible
02 Aug 4.9 19:30:14 10° NW 19:33:30 32° NNE 19:37:36 10° E visible
02 Aug 3.5 21:19:45 10° NW 21:23:39 74° SW 21:26:34 25° SE visible
02 Aug 5.5 23:10:24 10° W 23:13:17 17° WSW 23:13:17 17° WSW visible
